Location: Silent Lake
(44.9206°N, 78.0708°W)
Time: 05:24:35
(UTC-05:00)

Daily predictions for brighter satellites

Satellite Brightness Start Highest point End
(mag) Time Altitude Azimuth Time Altitude Azimuth Time Altitude Azimuth
ATLAS CENTAUR R/B 4.2 03:20:02 42° ESE 03:20:02 42° ESE 03:28:25 10° SE
ADEOS II 3.9 03:22:23 10° NE 03:26:18 27° E 03:26:18 27° E
ADEOS Rocket 4.2 03:22:00 10° NNE 03:26:05 38° N 03:26:05 38° N
Lacrosse 5 4.2 03:30:46 18° E 03:30:46 18° E 03:33:04 10° ENE
Okean O Rocket 4.3 03:34:39 10° NNE 03:35:32 15° NNE 03:35:32 15° NNE
Cosmos 2369 Rocket 3.2 03:43:44 44° ENE 03:43:44 44° ENE 03:47:50 10° NNE
Cosmos 2266 Rocket 4.2 03:48:01 10° N 04:02:24 - SSE 03:53:55 64° ENE
Cosmos 1867 4.0 04:11:34 55° NNE 04:11:34 55° NNE 04:15:52 10° NNE
IRS-1C Rocket 4.4 04:08:20 10° NNE 04:12:43 61° NNE 04:12:43 61° NNE
Cosmos 1190 Rocket 4.4 04:17:02 56° SE 04:17:02 56° SE 04:21:17 10° SSE
Lacrosse 5 rocket 3.8 04:21:15 14° NNE 04:21:15 14° NNE 04:22:46 10° NE
ATLAS 5 CENTAUR R/B 2.1 04:22:37 65° E 04:22:37 65° E 04:27:28 10° NE
Sich 1 Rocket 4.3 04:18:25 10° N 04:22:54 53° ENE 04:27:18 10° SSE
ERS-2 4.2 04:21:45 10° NNE 04:23:21 24° NNE 04:23:21 24° NNE
Cosmos 1908 Rocket 4.2 04:21:16 10° N 04:25:41 54° ENE 04:30:04 10° SSE
Cosmos 2263 4.0 04:27:19 83° SSW 04:27:33 89° ESE 04:33:12 10° NNE
MOS 1 Rocket 4.3 04:23:10 10° N 04:26:58 42° NNW 04:26:58 42° NNW
Cosmos 1943 Rocket 2.4 04:28:16 49° S 04:29:36 66° ESE 04:35:07 10° NNE
CZ-4B R/B 3.1 04:24:07 10° NNE 04:29:44 82° WNW 04:30:06 77° SW
Okean-O 3.6 04:28:43 10° NNE 04:32:59 44° E 04:35:44 20° SSE
Cosmos 1624 Rocket 3.9 04:33:05 84° W 04:33:09 84° WNW 04:38:32 10° NNE
Cosmos 2056 Rocket 3.3 04:34:28 86° SW 04:34:34 88° WNW 04:39:48 10° NNE
Tiangong 1 4.1 04:36:11 13° ESE 04:36:11 13° ESE 04:36:43 10° ESE
CZ-4C R/B 3.7 04:33:26 13° S 04:37:25 32° ESE 04:42:34 10° NE
Cosmos 1954 Rocket 4.5 04:37:49 10° NNW 04:43:05 61° ENE 04:48:21 10° SSE
Okean 2 Rocket 4.1 04:49:32 10° N 04:53:48 46° ENE 04:58:02 10° SSE
Meteor 1-26 Rocket 4.3 04:54:39 10° S 05:00:21 80° E 05:05:58 10° NNE
Cosmos 1371 Rocket 4.4 05:03:05 39° WNW 05:03:05 39° WNW 05:07:54 10° N
Thor Agena Rocket 3.4 04:59:34 10° SSE 05:04:47 79° WSW 05:09:59 10° NNW
USA 234 3.2 05:00:03 10° NE 05:06:37 82° NW 05:10:14 29° WSW
ADEOS II 2.4 05:01:46 10° N 05:06:43 42° WNW 05:07:16 41° W
Cosmos 1703 Rocket 3.4 05:04:08 19° S 05:07:16 85° W 05:11:41 10° N
RUBIN 8/PSLV 4.4 05:02:52 10° N 05:07:16 74° WNW 05:09:27 29° SSW
Cosmos 972 4.3 05:07:46 25° SSW 05:10:41 75° WNW 05:15:57 10° NNE
Lacrosse 5 1.8 05:10:01 39° WSW 05:11:53 80° NW 05:17:00 10° NE
Cosmos 1553 Rocket 4.2 05:07:24 10° S 05:13:33 72° E 05:19:50 10° NNE
Meteor 1-31 Rocket 2.6 05:09:42 10° N 05:13:36 67° WNW 05:14:57 37° SW
Okean O Rocket 3.5 05:11:38 10° NNW 05:13:01 16° NNW 05:13:01 16° NNW
Cosmos 1452 Rocket 3.5 05:10:39 10° SSW 05:15:56 90° SE 05:21:16 10° NNE
SJ-6F 4.4 05:12:51 10° NNE 05:17:02 88° ESE 05:21:09 10° SSW
Cosmos 2219 3.3 05:14:17 10° NNW 05:20:00 80° ENE 05:25:39 10° SSE
Cosmos 1023 Rocket 4.4 05:16:30 10° NNW 05:21:46 83° WSW 05:27:01 10° SSE
Cosmos 1741 Rocket 4.4 05:20:20 10° NNW 05:25:34 67° ENE 05:30:48 10° SSE
Cosmos 2369 Rocket 3.2 05:25:33 25° WNW 05:26:41 27° NW 05:31:27 10° N
Cosmos 2227 Rocket 3.9 05:21:37 10° N 05:26:44 33° NE 05:31:49 10° ESE
Feng Yun 1-1 Rocket 4.4 05:23:31 10° N 05:29:18 62° WNW 05:35:08 10° SSW
Cosmos 407 Rocket 4.2 05:28:00 19° NW 05:30:50 31° W 05:35:26 10° SSW
COSMO-SKYMED 1 2.4 05:28:41 10° S 05:33:00 77° WSW 05:37:23 10° NNW
ATLAS 3B R/B 4.1 05:26:05 10° S 05:33:05 42° ESE 05:39:53 10° NE
Cosmos 676 Rocket 4.4 05:29:45 10° NW 05:34:41 40° WSW 05:39:36 10° S
Cosmos 2221 Rocket 3.7 05:30:48 10° SSW 05:35:17 56° WNW 05:39:47 10° N
Cosmos 1656 Rocket 3.6 05:30:31 10° SSW 05:36:13 79° WNW 05:41:56 10° NNE
CZ-4B R/B 4.4 05:36:15 10° N 05:39:53 36° WNW 05:42:49 15° SW
USA 81 4.2 05:36:36 10° S 05:41:52 80° E 05:47:10 10° N
Cosmos 1140 Rocket 3.8 05:47:00 10° NNW 05:51:59 45° WSW 05:56:56 10° S
Abrixas 3.2 05:50:43 23° WNW 05:52:06 40° N 05:54:51 10° ENE
ERS-2 4.3 05:57:16 10° NW 05:58:08 12° NW 05:58:08 12° NW
Okean 1-7 3.6 05:56:32 10° SW 06:00:26 34° WNW 06:04:21 10° N
Lacrosse 5 rocket 2.2 05:57:21 10° NW 06:00:46 38° NNE 06:04:10 10° ESE
Cosmos 1745 Rocket 4.0 05:54:55 10° NNW 06:00:53 54° W 06:06:49 10° SSW
Cosmos 614 Rocket 4.1 05:56:07 10° NNW 06:01:01 49° WSW 06:05:55 10° S
Radarsat Rocket 4.4 05:55:32 10° NNE 06:02:56 67° WNW 06:09:24 10° SSW
Meteor 1-27 Rocket 4.3 06:01:25 10° S 06:07:07 67° E 06:12:59 10° NNE
ATLAS 5 CENTAUR R/B 3.1 06:04:11 14° W 06:07:31 25° NW 06:11:57 10° NNE
Cosmos 1386 Rocket 4.4 06:01:43 10° NNW 06:07:40 63° W 06:13:40 10° S
Okean-O 3.9 06:05:55 10° NNW 06:09:11 20° WNW 06:12:26 10° WSW
CZ-2C R/B 3.4 06:04:43 10° NNE 06:09:29 52° E 06:14:23 10° S
Meteor 2-10 Rocket 4.4 06:05:36 10° SW 06:09:47 26° WNW 06:14:03 10° NNW
Tiangong 1 1.6 06:07:42 12° WSW 06:10:14 47° S 06:13:06 10° E
Cosmos 1633 2.6 06:07:27 10° N 06:11:06 85° E 06:14:43 10° S
Cosmos 1943 Rocket 3.4 06:09:50 11° W 06:13:52 23° NW 06:18:13 10° N
PAYLOAD A 3.9 06:10:15 10° NNE 06:14:59 84° ESE 06:19:49 10° SSW
Meteor 1-28 Rocket 3.9 06:12:06 10° SSW 06:15:27 32° W 06:18:51 10° NNW
Cosmos 1850 Rocket 4.4 06:11:50 10° NNW 06:16:53 43° WSW 06:21:53 10° S
Cosmos 1300 Rocket 3.6 06:15:10 10° N 06:19:38 89° ESE 06:24:02 10° S
Cosmos 1782 3.4 06:18:15 10° SW 06:21:55 36° WNW 06:25:37 10° N
IDEFIX/ARIANE 42P 2.9 06:18:05 10° NNE 06:23:21 72° ESE 06:28:32 10° S
CZ-4C R/B 2.6 06:20:27 10° WSW 06:25:40 47° NW 06:31:38 10° NNE
Cosmos 2082 3.9 06:20:45 10° NNW 06:26:28 77° ENE 06:32:06 10° SSE
Ariane Rocket 3.1 06:23:04 10° N 06:28:05 58° WNW 06:33:03 10° SSW
CSL-04 Rocket 3.7 06:23:39 10° N 06:29:00 68° WNW 06:34:22 10° SSW
